DW4641 Weather Reports


Display with metric or nautical units.
time (UTC)temp
F
wind
direction
speed
MPH
gust
MPH
rain 1hr
in
rain 24hr
in
rain mn
in
humidity
%
barometer
mb
20180625002507 70 151 1.0 3.0 0.00 0.01 0.01 89 1006.8
20180625002008 70 151 1.0 3.0 0.00 0.01 0.01 88 1006.5
20180625001508 70 151 1.0 3.0 0.00 0.01 0.01 88 1006.5
20180625001008 71 151 1.0 3.0 0.00 0.01 0.01 88 1006.1
20180625000511 71 153 2.0 5.0 0.00 0.01 0.01 87 1006.2
20180625000009 71 158 2.0 5.0 0.00 0.01 0.01 86 1006.3
20180624235508 72 161 2.0 5.0 0.00 0.01 0.01 86 1006.5
20180624235008 72 160 2.0 5.0 0.00 0.01 0.01 84 1006.6
20180624234508 73 160 2.0 5.0 0.00 0.01 0.01 83 1006.4
20180624234008 73 161 1.0 4.0 0.00 0.01 0.01 82 1006.5
20180624233508 73 161 1.0 4.0 0.00 0.01 0.01 82 1006.8
20180624233008 74 161 1.0 4.0 0.00 0.01 0.01 81 1006.9
20180624232509 74 161 1.0 4.0 0.00 0.01 0.01 80 1007.0
20180624232009 74 161 1.0 4.0 0.00 0.01 0.01 80 1006.8
20180624231508 74 161 2.0 5.0 0.00 0.01 0.01 79 1007.0
20180624231009 75 162 2.0 6.0 0.00 0.01 0.01 79 1006.8
20180624230509 76 172 2.0 6.0 0.00 0.01 0.01 78 1006.8
20180624230009 76 194 1.0 2.0 0.00 0.01 0.01 81 1006.7
20180624225508 76 194 0.0 2.0 0.00 0.01 0.01 80 1006.7
20180624225009 76 194 1.0 3.0 0.00 0.01 0.01 80 1006.6
20180624224509 76 194 2.0 5.0 0.00 0.01 0.01 80 1006.4
20180624224009 76 194 3.0 5.0 0.00 0.01 0.01 80 1006.3
20180624223510 76 194 3.0 5.0 0.00 0.01 0.01 80 1006.2
20180624223009 76 201 3.0 7.0 0.00 0.01 0.01 80 1006.3
20180624222510 76 204 4.0 8.0 0.00 0.01 0.01 80 1006.1
20180624222009 77 203 3.0 8.0 0.00 0.01 0.01 79 1006.1
20180624221509 77 202 2.0 5.0 0.00 0.01 0.01 80 1006.1
20180624221010 76 202 3.0 7.0 0.00 0.01 0.01 81 1006.1
20180624220509 76 205 3.0 7.0 0.00 0.01 0.01 81 1006.0
20180624220010 76 211 2.0 5.0 0.00 0.01 0.01 83 1006.0
20180624215510 75 210 3.0 6.0 0.00 0.01 0.01 82 1006.1
20180624215009 75 209 3.0 6.0 0.00 0.01 0.01 82 1006.2
20180624214510 75 209 3.0 6.0 0.00 0.01 0.01 82 1006.2
20180624214010 76 206 4.0 7.0 0.00 0.01 0.01 81 1006.2
20180624213509 76 204 4.0 8.0 0.00 0.01 0.01 81 1006.3
20180624213010 76 215 4.0 9.0 0.00 0.01 0.01 81 1006.3
20180624212509 76 216 4.0 12.0 0.00 0.01 0.01 82 1006.4
20180624212010 76 205 4.0 12.0 0.00 0.01 0.01 82 1006.3
20180624211510 76 203 4.0 11.0 0.00 0.01 0.01 82 1006.2
20180624211010 76 208 4.0 10.0 0.01 0.01 0.01 82 1006.2
20180624210510 76 212 4.0 10.0 0.01 0.01 0.01 84 1006.2
20180624210011 75 210 3.0 10.0 0.01 0.01 0.01 85 1006.4
20180624205510 74 201 2.0 8.0 0.01 0.01 0.01 87 1006.5
20180624205010 74 184 3.0 8.0 0.01 0.01 0.01 88 1006.5
20180624204510 73 159 1.0 6.0 0.01 0.01 0.01 89 1006.6
20180624204011 72 159 1.0 4.0 0.01 0.01 0.01 89 1006.5
20180624203510 72 158 0.0 2.0 0.01 0.01 0.01 88 1006.5
20180624203011 72 167 0.0 2.0 0.01 0.01 0.01 87 1006.6
20180624202523 72 185 0.0 2.0 0.01 0.01 0.01 86 1006.8
20180624202023 73 185 0.0 2.0 0.01 0.01 0.01 86 1006.5
20180624201523 73 185 0.0 2.0 0.01 0.01 0.01 85 1006.6
20180624201023 73 186 0.0 2.0 0.00 0.00 0.00 84 1006.7
20180624200523 74 186 0.0 1.0 0.00 0.00 0.00 84 1006.7
20180624200023 74 186 0.0 1.0 0.00 0.00 0.00 82 1006.7
20180624195523 75 186 0.0 1.0 0.00 0.00 0.00 82 1006.9
20180624195024 75 186 0.0 2.0 0.00 0.00 0.00 80 1006.9
20180624194522 75 187 1.0 4.0 0.00 0.00 0.00 78 1006.9
20180624194023 76 194 1.0 4.0 0.00 0.00 0.00 77 1007.0
20180624193523 76 198 1.0 4.0 0.00 0.00 0.00 77 1007.0
20180624193023 77 198 1.0 4.0 0.00 0.00 0.00 76 1007.1
20180624192523 77 198 1.0 4.0 0.00 0.00 0.00 76 1007.0
20180624192023 77 195 1.0 6.0 0.00 0.00 0.00 77 1006.6
20180624191523 77 193 2.0 6.0 0.00 0.00 0.00 77 1006.7
20180624191023 77 189 2.0 6.0 0.00 0.00 0.00 77 1006.8
20180624190523 76 187 1.0 5.0 0.00 0.00 0.00 79 1006.8
20180624190023 76 194 1.0 4.0 0.00 0.00 0.00 77 1007.0
20180624185523 76 202 1.0 6.0 0.00 0.00 0.00 76 1007.0
20180624185023 76 207 1.0 6.0 0.00 0.00 0.00 77 1007.0
20180624184523 77 207 1.0 3.0 0.00 0.00 0.00 75 1007.2
20180624184023 77 206 2.0 7.0 0.00 0.00 0.00 74 1007.2
20180624183523 78 206 2.0 7.0 0.00 0.00 0.00 73 1007.3
20180624183023 78 206 1.0 7.0 0.00 0.00 0.00 74 1007.3
20180624182523 78 195 2.0 7.0 0.00 0.00 0.00 75 1007.2
20180624182023 78 193 4.0 8.0 0.00 0.00 0.00 73 1007.4
20180624181523 78 197 3.0 8.0 0.00 0.00 0.00 74 1007.3
20180624181023 77 210 3.0 7.0 0.00 0.00 0.00 75 1007.2
20180624180523 77 219 3.0 7.0 0.00 0.00 0.00 76 1007.3
20180624180024 76 210 3.0 6.0 0.00 0.00 0.00 77 1007.4
20180624175523 76 197 3.0 8.0 0.00 0.00 0.00 76 1007.5
20180624175023 76 204 3.0 8.0 0.00 0.00 0.00 78 1007.4
20180624174523 75 211 4.0 7.0 0.00 0.00 0.00 78 1007.4
20180624174023 75 218 4.0 9.0 0.00 0.00 0.00 77 1007.5
20180624173523 76 209 4.0 9.0 0.00 0.00 0.00 76 1007.5
20180624173023 76 205 4.0 8.0 0.00 0.00 0.00 76 1007.4
20180624172523 77 228 3.0 8.0 0.00 0.00 0.00 75 1007.5
20180624172023 77 212 3.0 8.0 0.00 0.00 0.00 76 1007.5
20180624171523 77 193 4.0 8.0 0.00 0.00 0.00 78 1007.5
20180624171023 76 192 3.0 8.0 0.00 0.00 0.00 77 1007.7
20180624170523 76 209 2.0 7.0 0.00 0.00 0.00 80 1007.7
20180624170023 76 216 2.0 7.0 0.00 0.00 0.00 79 1007.7
20180624165522 75 204 2.0 7.0 0.00 0.00 0.00 80 1007.7
20180624165023 74 200 2.0 5.0 0.00 0.00 0.00 82 1007.7
20180624164523 74 202 3.0 7.0 0.00 0.00 0.00 82 1007.7
20180624164023 73 203 3.0 7.0 0.00 0.00 0.00 81 1007.7
20180624163523 74 205 3.0 7.0 0.00 0.00 0.00 81 1007.9
20180624163023 74 211 3.0 12.0 0.00 0.00 0.00 81 1007.9
20180624162523 74 209 3.0 12.0 0.00 0.00 0.00 82 1008.0
20180624162023 73 201 2.0 6.0 0.00 0.00 0.00 83 1008.1
20180624161523 73 202 3.0 6.0 0.00 0.00 0.00 83 1008.1
20180624161022 72 206 3.0 6.0 0.00 0.00 0.00 84 1008.2
20180624160522 72 218 3.0 7.0 0.00 0.00 0.00 83 1008.2
20180624160023 72 220 3.0 7.0 0.00 0.00 0.00 83 1008.3
20180624155523 72 217 3.0 7.0 0.00 0.00 0.00 86 1008.2
20180624155022 71 220 3.0 6.0 0.00 0.00 0.00 87 1008.3
20180624154523 70 219 2.0 6.0 0.00 0.00 0.00 87 1008.2
20180624154023 70 218 3.0 7.0 0.00 0.00 0.00 88 1008.3
20180624153523 69 218 4.0 9.0 0.00 0.00 0.00 88 1008.3
20180624153022 69 213 3.0 9.0 0.00 0.00 0.00 89 1008.3
20180624152522 68 204 3.0 8.0 0.00 0.00 0.00 89 1008.4
20180624152023 68 203 3.0 6.0 0.00 0.00 0.00 90 1008.6
20180624151522 68 200 3.0 6.0 0.00 0.00 0.00 90 1008.4
20180624151022 68 201 3.0 8.0 0.00 0.00 0.00 90 1008.5
20180624150522 68 206 3.0 8.0 0.00 0.00 0.00 90 1008.5
20180624150023 68 204 3.0 7.0 0.00 0.00 0.00 90 1008.4
20180624145522 67 213 3.0 7.0 0.00 0.00 0.00 90 1008.4
20180624145023 67 223 3.0 7.0 0.00 0.00 0.00 90 1008.4
20180624144522 67 213 4.0 7.0 0.00 0.00 0.00 90 1008.4
20180624144022 67 206 4.0 7.0 0.00 0.00 0.00 90 1008.3
20180624143522 67 208 4.0 8.0 0.00 0.00 0.00 90 1008.5
20180624143022 67 212 3.0 8.0 0.00 0.00 0.00 90 1008.5
20180624142522 67 214 3.0 8.0 0.00 0.00 0.00 90 1008.5
20180624142023 67 211 4.0 9.0 0.00 0.00 0.00 89 1008.5
20180624141522 68 208 4.0 9.0 0.00 0.00 0.00 89 1008.6
20180624141023 68 213 4.0 8.0 0.00 0.00 0.00 88 1008.6
20180624140523 68 218 4.0 8.0 0.00 0.00 0.00 88 1008.4
20180624140023 68 205 4.0 8.0 0.00 0.00 0.00 88 1008.4
20180624135528 68 186 3.0 8.0 0.00 0.00 0.00 88 1008.3
20180624135022 68 181 3.0 8.0 0.00 0.00 0.00 88 1008.3
20180624134522 68 182 3.0 8.0 0.00 0.00 0.00 88 1008.3
20180624134023 68 186 2.0 6.0 0.00 0.00 0.00 89 1008.3
20180624133523 68 189 2.0 5.0 0.00 0.00 0.00 90 1008.4
20180624133023 67 190 3.0 7.0 0.00 0.00 0.00 90 1008.4
20180624132522 67 191 4.0 7.0 0.00 0.00 0.00 90 1008.4
20180624132022 67 193 3.0 7.0 0.00 0.00 0.00 90 1008.4
20180624131522 67 193 3.0 7.0 0.00 0.00 0.00 90 1008.5
20180624131022 66 201 2.0 6.0 0.00 0.00 0.00 90 1008.6
20180624130522 66 333 2.0 6.0 0.00 0.00 0.00 90 1008.8
20180624130023 66 332 2.0 5.0 0.00 0.00 0.00 91 1008.7
20180624125523 66 208 2.0 6.0 0.00 0.00 0.00 91 1008.7
20180624125022 66 197 2.0 6.0 0.00 0.00 0.00 91 1008.7
20180624124522 66 198 2.0 6.0 0.00 0.00 0.00 91 1008.7
20180624124023 66 199 2.0 5.0 0.00 0.00 0.00 91 1008.6
20180624123523 65 190 2.0 5.0 0.00 0.00 0.00 91 1008.6
20180624123022 65 174 2.0 6.0 0.00 0.00 0.00 91 1008.5
20180624122522 65 168 2.0 6.0 0.00 0.00 0.00 91 1008.6
20180624122024 65 173 1.0 3.0 0.00 0.00 0.00 91 1008.6
20180624121522 65 169 1.0 4.0 0.00 0.00 0.00 92 1008.4
20180624121023 65 169 1.0 4.0 0.00 0.00 0.00 91 1008.5
20180624120523 65 149 1.0 5.0 0.00 0.00 0.00 91 1008.4
20180624120022 65 78 1.0 5.0 0.00 0.00 0.00 91 1008.5
20180624115522 64 50 1.0 3.0 0.00 0.00 0.00 91 1008.5
20180624115023 64 47 0.0 3.0 0.00 0.00 0.00 91 1008.4
20180624114523 64 228 0.0 3.0 0.00 0.00 0.00 91 1008.4
20180624114022 64 265 1.0 4.0 0.00 0.00 0.00 91 1008.5
20180624113522 64 285 1.0 4.0 0.00 0.00 0.00 91 1008.5
20180624113022 64 294 1.0 3.0 0.00 0.00 0.00 91 1008.4
20180624112522 64 294 1.0 2.0 0.00 0.00 0.00 91 1008.3
20180624112023 63 292 0.0 2.0 0.00 0.00 0.00 91 1008.2
20180624111523 63 211 0.0 2.0 0.00 0.00 0.00 92 1008.2
20180624111022 63 205 1.0 3.0 0.00 0.00 0.00 92 1008.2
20180624110522 63 205 1.0 3.0 0.00 0.00 0.00 92 1008.2
20180624110022 63 205 1.0 3.0 0.00 0.00 0.00 92 1008.1
20180624105522 63 205 1.0 3.0 0.00 0.00 0.00 92 1008.1
20180624105022 63 205 1.0 3.0 0.00 0.00 0.00 92 1008.0
20180624104522 63 205 1.0 3.0 0.00 0.00 0.00 92 1008.0
20180624104022 62 205 1.0 4.0 0.00 0.00 0.00 92 1008.0
20180624103522 62 205 2.0 4.0 0.00 0.00 0.00 92 1008.0
20180624103022 62 186 2.0 5.0 0.00 0.00 0.00 92 1007.9
20180624102522 62 165 1.0 5.0 0.00 0.00 0.00 92 1007.9
20180624102022 62 135 1.0 4.0 0.00 0.00 0.00 93 1007.9
20180624101522 62 128 2.0 4.0 0.00 0.00 0.00 92 1007.9
20180624101022 62 105 2.0 4.0 0.00 0.00 0.00 92 1007.8
20180624100522 62 94 1.0 4.0 0.00 0.00 0.00 92 1007.8
20180624100022 62 91 1.0 2.0 0.00 0.00 0.00 93 1007.8
20180624095522 62 91 1.0 2.0 0.00 0.00 0.00 93 1007.7
20180624095022 62 91 0.0 2.0 0.00 0.00 0.00 93 1007.7
20180624094522 62 92 0.0 1.0 0.00 0.00 0.00 93 1007.7
20180624094023 62 91 0.0 2.0 0.00 0.00 0.00 93 1007.7
20180624093522 62 91 0.0 2.0 0.00 0.00 0.00 93 1007.7
20180624093023 62 91 0.0 2.0 0.00 0.00 0.00 93 1007.7
20180624092522 62 91 1.0 3.0 0.00 0.00 0.00 93 1007.7
20180624091022 62 0 0.0 0.0 0.00 0.00 0.00 93 1007.7
20180624090521 62 0 0.0 0.0 0.00 0.00 0.00 92 1007.7
20180624090022 62 91 0.0 1.0 0.00 0.00 0.00 92 1007.7
20180624085522 62 91 0.0 2.0 0.00 0.00 0.00 92 1007.6
20180624085022 62 91 1.0 3.0 0.00 0.00 0.00 92 1007.6
20180624084522 62 85 1.0 3.0 0.00 0.00 0.00 93 1007.6
20180624084023 62 70 0.0 3.0 0.00 0.00 0.00 93 1007.6
20180624083521 62 67 0.0 3.0 0.00 0.00 0.00 93 1007.7
20180624083022 62 67 1.0 3.0 0.00 0.00 0.00 93 1007.7
20180624082522 62 67 1.0 3.0 0.00 0.00 0.00 93 1007.7
20180624082022 62 67 0.0 2.0 0.00 0.00 0.00 93 1007.6
20180624081523 62 0 0.0 0.0 0.00 0.00 0.00 92 1007.6
20180624081022 62 0 0.0 0.0 0.00 0.00 0.00 92 1007.5
20180624080522 62 0 0.0 0.0 0.00 0.00 0.00 92 1007.4
20180624080023 62 0 0.0 0.0 0.00 0.00 0.00 92 1007.5
20180624075522 62 0 0.0 0.0 0.00 0.00 0.00 92 1007.6
20180624075021 62 0 0.0 0.0 0.00 0.00 0.00 92 1007.6
20180624074522 62 0 0.0 0.0 0.00 0.00 0.00 92 1007.6
20180624074023 62 0 0.0 0.0 0.00 0.00 0.00 92 1007.6
20180624073522 62 0 0.0 0.0 0.00 0.00 0.00 92 1007.6
20180624073022 62 0 0.0 0.0 0.00 0.00 0.00 92 1007.5
20180624072522 62 0 0.0 0.0 0.00 0.00 0.00 92 1007.5
20180624072022 62 0 0.0 0.0 0.00 0.00 0.00 92 1007.5
20180624071522 62 0 0.0 0.0 0.00 0.00 0.00 92 1007.5
20180624071022 62 0 0.0 0.0 0.00 0.00 0.00 92 1007.5
20180624070522 62 0 0.0 0.0 0.00 0.00 0.00 92 1007.6
20180624070022 62 0 0.0 0.0 0.00 0.00 0.00 92 1007.6
20180624065522 62 0 0.0 0.0 0.00 0.00 0.00 92 1007.8
20180624065022 62 0 0.0 0.0 0.00 0.00 0.00 92 1007.6
20180624064522 62 0 0.0 0.0 0.00 0.00 0.00 92 1007.6
20180624064022 62 0 0.0 0.0 0.00 0.00 0.00 92 1007.8
20180624063522 62 0 0.0 0.0 0.00 0.00 0.00 92 1007.9
20180624063022 62 0 0.0 0.0 0.00 0.00 0.00 92 1008.0
20180624062522 62 0 0.0 0.0 0.00 0.00 0.00 91 1007.9
20180624062022 62 67 0.0 2.0 0.00 0.00 0.00 91 1007.9
20180624061522 62 67 0.0 2.0 0.00 0.00 0.00 91 1007.9
20180624061022 62 68 0.0 1.0 0.00 0.00 0.00 91 1007.9
20180624060522 62 0 0.0 0.0 0.00 0.00 0.00 91 1008.1
20180624060023 62 0 0.0 0.0 0.00 0.00 0.00 91 1008.2
20180624055522 62 67 0.0 2.0 0.00 0.00 0.00 91 1008.3
20180624055022 62 67 0.0 2.0 0.00 0.00 0.00 91 1008.2
20180624054522 62 67 0.0 2.0 0.00 0.00 0.00 91 1008.2
20180624054022 62 67 0.0 2.0 0.00 0.00 0.00 91 1008.3
20180624053521 62 67 0.0 2.0 0.00 0.00 0.00 91 1008.2
20180624053022 62 67 0.0 2.0 0.00 0.00 0.00 91 1008.3
20180624052522 62 67 0.0 2.0 0.00 0.00 0.00 91 1008.3
20180624052022 62 67 0.0 2.0 0.00 0.00 0.00 91 1008.3
20180624051522 62 67 0.0 2.0 0.00 0.00 0.00 91 1008.3
20180624051022 62 67 1.0 3.0 0.00 0.00 0.00 91 1008.2
20180624050522 62 67 1.0 3.0 0.00 0.00 0.00 91 1008.1
20180624050022 62 67 1.0 3.0 0.00 0.00 0.00 91 1008.1
20180624045522 62 68 1.0 3.0 0.00 0.00 0.00 91 1008.3
20180624045022 62 67 1.0 3.0 0.00 0.00 0.00 91 1008.2
20180624044522 62 67 1.0 3.0 0.00 0.00 0.00 91 1008.2
20180624044022 62 67 0.0 2.0 0.00 0.00 0.00 91 1008.3
20180624043522 62 0 0.0 0.0 0.00 0.00 0.00 91 1008.5
20180624043022 62 0 0.0 0.0 0.00 0.00 0.00 91 1008.5
20180624042521 62 0 0.0 0.0 0.00 0.00 0.00 91 1008.4
20180624042022 62 0 0.0 0.0 0.00 0.00 0.00 91 1008.3
20180624041522 62 0 0.0 0.0 0.00 0.00 0.00 91 1008.5
20180624041022 62 0 0.0 0.0 0.00 0.00 0.00 91 1008.5
20180624040521 62 68 0.0 1.0 0.00 0.00 0.00 91 1008.5
20180624040024 62 68 0.0 1.0 0.00 0.00 0.00 91 1008.4
20180624035521 62 0 0.0 0.0 0.00 0.00 0.00 91 1008.4
20180624035021 62 0 0.0 0.0 0.00 0.00 0.00 91 1008.4
20180624034521 62 0 0.0 0.0 0.00 0.00 0.00 91 1008.4
20180624034021 62 0 0.0 0.0 0.00 0.00 0.00 91 1008.4
20180624033521 62 0 0.0 0.0 0.00 0.00 0.00 91 1008.3
20180624033021 62 0 0.0 0.0 0.00 0.00 0.00 91 1008.3
20180624032522 62 0 0.0 0.0 0.00 0.00 0.00 91 1008.2
20180624032022 62 0 0.0 0.0 0.00 0.00 0.00 91 1008.2
20180624031522 62 68 0.0 1.0 0.00 0.00 0.00 91 1008.2
20180624031022 62 68 0.0 1.0 0.00 0.00 0.00 91 1008.3
20180624030522 62 68 0.0 1.0 0.00 0.00 0.00 91 1008.2
20180624030023 62 67 0.0 2.0 0.00 0.00 0.00 91 1008.4
20180624025522 62 67 0.0 2.0 0.00 0.00 0.00 91 1008.4
20180624025022 62 67 0.0 2.0 0.00 0.00 0.00 92 1008.4
20180624024522 62 67 0.0 2.0 0.00 0.00 0.00 92 1008.4
20180624024022 62 67 0.0 2.0 0.00 0.00 0.00 92 1008.4
20180624023522 62 68 0.0 1.0 0.00 0.00 0.00 92 1008.4
20180624023021 62 68 0.0 2.0 0.00 0.00 0.00 92 1008.6
20180624022521 62 67 0.0 2.0 0.00 0.00 0.00 92 1008.6
20180624022022 62 67 0.0 2.0 0.00 0.00 0.00 92 1008.4
20180624021522 62 67 1.0 4.0 0.00 0.00 0.00 92 1008.3
20180624021022 62 67 1.0 4.0 0.00 0.00 0.00 92 1008.3
20180624020522 62 67 1.0 3.0 0.00 0.00 0.00 92 1008.3
20180624020022 62 67 1.0 3.0 0.00 0.00 0.00 92 1008.4
20180624015522 62 67 0.0 2.0 0.00 0.00 0.00 92 1008.5
20180624015022 62 68 0.0 1.0 0.00 0.00 0.00 93 1008.6
20180624014521 62 67 0.0 1.0 0.00 0.00 0.00 93 1008.7
20180624014021 62 68 0.0 1.0 0.00 0.00 0.00 93 1008.7
20180624013521 62 67 0.0 2.0 0.00 0.00 0.00 93 1008.8
20180624013022 62 67 0.0 2.0 0.00 0.00 0.00 93 1008.8
20180624012522 62 68 0.0 2.0 0.00 0.00 0.00 93 1008.8
20180624012022 62 68 0.0 1.0 0.00 0.00 0.00 93 1008.6
20180624011521 62 0 0.0 0.0 0.00 0.00 0.00 93 1008.7
20180624011022 62 0 0.0 0.0 0.00 0.00 0.00 93 1008.7
20180624010522 62 67 0.0 2.0 0.00 0.00 0.00 93 1008.7
20180624010022 62 67 0.0 2.0 0.00 0.00 0.00 93 1008.5
20180624005521 62 67 0.0 2.0 0.00 0.00 0.00 93 1008.6
20180624005022 62 68 0.0 2.0 0.00 0.00 0.00 93 1008.5
20180624004522 62 68 0.0 1.0 0.00 0.00 0.00 93 1008.5
20180624004022 62 67 0.0 2.0 0.00 0.00 0.00 92 1008.5
20180624003522 62 67 0.0 2.0 0.00 0.00 0.00 92 1008.4
20180624003022 62 67 0.0 2.0 0.00 0.00 0.00 92 1008.3